N2ADK Weather Reports


Display with metric or nautical units.
time (UTC)temp
F
wind
direction
speed
MPH
gust
MPH
rain 1hr
in
rain 24hr
in
rain mn
in
humidity
%
barometer
mb
20260508032518 36 0 0.0 0.0 0.00 0.01 0.01 90 1010.7
20260508032018 36 0 0.0 0.0 0.00 0.01 0.01 90 1010.6
20260508031533 36 0 0.0 0.0 0.00 0.01 0.01 89 1010.6
20260508031018 36 0 0.0 0.0 0.00 0.01 0.01 90 1010.4
20260508030518 36 0 0.0 0.0 0.00 0.01 0.01 88 1010.2
20260508030034 37 0 0.0 0.0 0.00 0.01 0.01 89 1010.1
20260508025518 37 0 0.0 0.0 0.00 0.01 0.01 89 1010.0
20260508025020 37 0 0.0 0.0 0.00 0.01 0.01 88 1010.0
20260508024551 38 0 0.0 0.0 0.00 0.01 0.01 88 1010.1
20260508024018 38 0 0.0 0.0 0.00 0.01 0.01 88 1010.1
20260508023518 38 0 0.0 0.0 0.00 0.01 0.01 88 1010.0
20260508023035 39 0 0.0 0.0 0.00 0.01 0.01 88 1010.1
20260508022517 39 0 0.0 0.0 0.00 0.01 0.01 88 1010.2
20260508022018 39 0 0.0 0.0 0.00 0.01 0.01 88 1010.3
20260508021535 39 0 0.0 0.0 0.00 0.01 0.01 87 1010.4
20260508021018 40 0 0.0 0.0 0.00 0.01 0.01 86 1010.5
20260508020518 40 0 0.0 0.0 0.00 0.01 0.01 85 1010.4
20260508020033 40 0 0.0 0.0 0.00 0.01 0.01 85 1010.6
20260508015518 41 0 0.0 0.0 0.00 0.01 0.01 84 1010.5
20260508015018 41 0 0.0 0.0 0.00 0.01 0.01 83 1010.5
20260508014534 42 0 0.0 0.0 0.00 0.01 0.01 82 1010.5
20260508014018 42 0 0.0 0.0 0.00 0.01 0.01 82 1010.4
20260508013518 43 0 0.0 0.0 0.00 0.01 0.01 83 1010.5
20260508013032 43 0 0.0 0.0 0.00 0.01 0.01 82 1010.4
20260508012521 43 0 0.0 0.0 0.00 0.01 0.01 81 1010.4
20260508012019 44 0 0.0 0.0 0.00 0.01 0.01 82 1010.4
20260508011548 44 0 0.0 0.0 0.00 0.01 0.01 82 1010.5
20260508011017 44 0 0.0 0.0 0.00 0.01 0.01 80 1010.5
20260508010517 44 0 0.0 0.0 0.00 0.01 0.01 79 1010.6
20260508010035 44 0 0.0 0.0 0.00 0.01 0.01 78 1010.6
20260508005527 44 0 0.0 0.0 0.00 0.01 0.01 80 1010.4
20260508005016 44 0 0.0 0.0 0.00 0.01 0.01 78 1010.4
20260508004549 44 0 0.0 0.0 0.00 0.01 0.01 77 1010.4
20260508004018 44 0 0.0 0.0 0.00 0.01 0.01 75 1010.3
20260508003518 44 0 0.0 0.0 0.00 0.01 0.01 77 1010.1
20260508003041 45 0 0.0 0.0 0.00 0.01 0.01 77 1010.1
20260508002517 45 0 0.0 0.0 0.00 0.01 0.01 75 1010.1
20260508002017 45 0 0.0 0.0 0.00 0.01 0.01 73 1010.1
20260508001540 46 0 0.0 0.0 0.00 0.01 0.01 70 1009.9
20260508001018 46 0 0.0 0.0 0.00 0.01 0.01 67 1009.8
20260508000523 46 0 0.0 0.0 0.00 0.01 0.01 64 1009.8
20260508000034 47 0 0.0 0.0 0.00 0.01 0.01 58 1009.8
20260507235518 47 0 0.0 0.0 0.00 0.01 0.01 57 1009.8
20260507235022 48 0 0.0 0.0 0.00 0.01 0.01 53 1009.8
20260507234533 49 0 0.0 0.0 0.00 0.01 0.01 51 1009.7
20260507234018 49 0 0.0 0.0 0.00 0.01 0.01 48 1009.5
20260507233518 50 0 0.0 0.0 0.00 0.01 0.01 47 1009.6
20260507233033 50 0 0.0 0.0 0.00 0.01 0.01 46 1009.6
20260507232520 50 0 0.0 0.0 0.00 0.01 0.01 46 1009.6
20260507232017 51 0 0.0 0.0 0.00 0.01 0.01 45 1009.6
20260507231534 51 0 0.0 0.0 0.00 0.01 0.01 44 1009.6
20260507231018 51 0 0.0 0.0 0.00 0.01 0.01 45 1009.6
20260507230520 51 0 0.0 0.0 0.00 0.01 0.01 45 1009.5
20260507230036 52 0 0.0 0.0 0.00 0.01 0.01 44 1009.6
20260507225517 52 0 0.0 0.0 0.00 0.01 0.01 46 1009.6
20260507225020 52 0 0.0 0.0 0.00 0.01 0.01 43 1009.5
20260507224530 53 0 0.0 0.0 0.00 0.01 0.01 45 1009.5
20260507224017 53 0 0.0 0.0 0.00 0.01 0.01 42 1009.6
20260507223518 53 0 0.0 0.0 0.00 0.01 0.01 42 1009.5
20260507223035 54 0 0.0 0.0 0.00 0.01 0.01 41 1009.6
20260507222516 54 0 0.0 0.0 0.00 0.01 0.01 41 1009.5
20260507222018 54 0 0.0 0.0 0.00 0.01 0.01 42 1009.5
20260507221530 54 0 0.0 0.0 0.00 0.01 0.01 43 1009.4
20260507221018 54 0 0.0 0.0 0.00 0.01 0.01 46 1009.6
20260507220518 54 0 0.0 0.0 0.00 0.01 0.01 44 1009.5
20260507220030 54 0 0.0 0.0 0.00 0.01 0.01 43 1009.4
20260507215518 54 0 0.0 0.0 0.00 0.01 0.01 43 1009.5
20260507215018 54 0 0.0 0.0 0.00 0.01 0.01 43 1009.7
20260507214530 54 0 0.0 0.0 0.00 0.01 0.01 43 1009.8
20260507214017 54 0 0.0 0.0 0.00 0.01 0.01 42 1009.6
20260507213519 55 0 0.0 0.0 0.00 0.01 0.01 44 1009.7
20260507213035 54 0 0.0 0.0 0.00 0.01 0.01 44 1009.7
20260507212519 55 0 0.0 0.0 0.00 0.01 0.01 49 1009.7
20260507212014 54 0 0.0 0.0 0.00 0.01 0.01 44 1009.7
20260507211534 54 0 0.0 0.0 0.00 0.01 0.01 42 1009.6
20260507211018 54 0 0.0 0.0 0.00 0.01 0.01 45 1009.5
20260507210521 54 0 0.0 0.0 0.00 0.01 0.01 45 1009.6
20260507210033 54 0 0.0 0.0 0.00 0.01 0.01 46 1009.6
20260507205518 54 0 0.0 0.0 0.00 0.02 0.01 48 1009.6
20260507205017 54 0 0.0 0.0 0.00 0.02 0.01 48 1009.5
20260507204548 55 0 0.0 0.0 0.00 0.02 0.01 46 1009.5
20260507204018 55 0 0.0 0.0 0.00 0.02 0.01 46 1009.5
20260507203518 55 0 0.0 0.0 0.00 0.02 0.01 47 1009.6
20260507203030 54 0 0.0 0.0 0.00 0.02 0.01 44 1009.6
20260507202517 53 0 0.0 0.0 0.00 0.02 0.01 48 1009.6
20260507202015 53 0 0.0 0.0 0.00 0.02 0.01 45 1010.0
20260507201535 54 0 0.0 0.0 0.00 0.02 0.01 45 1009.8
20260507201017 55 0 0.0 0.0 0.00 0.02 0.01 46 1009.6
20260507200518 55 0 0.0 0.0 0.00 0.02 0.01 51 1009.7
20260507200038 54 0 0.0 0.0 0.00 0.02 0.01 49 1009.7
20260507195519 54 0 0.0 0.0 0.00 0.04 0.01 47 1009.7
20260507195014 54 0 0.0 0.0 0.00 0.04 0.01 47 1010.0
20260507194533 55 0 0.0 0.0 0.00 0.04 0.01 45 1010.0
20260507194018 56 0 0.0 0.0 0.00 0.04 0.01 47 1009.9
20260507193521 56 0 0.0 0.0 0.00 0.04 0.01 50 1009.8
20260507193034 55 0 0.0 0.0 0.00 0.04 0.01 48 1010.0
20260507192517 55 0 0.0 0.0 0.00 0.04 0.01 51 1010.1
20260507192019 54 0 0.0 0.0 0.00 0.04 0.01 46 1010.2
20260507191531 54 0 0.0 0.0 0.00 0.04 0.01 45 1010.2
20260507191017 54 0 0.0 0.0 0.00 0.04 0.01 47 1010.3
20260507190515 55 0 0.0 0.0 0.00 0.04 0.01 48 1010.4
20260507190037 55 0 0.0 0.0 0.00 0.04 0.01 50 1010.4
20260507185518 54 0 0.0 0.0 0.00 0.06 0.01 44 1010.5
20260507185017 54 0 0.0 0.0 0.00 0.06 0.01 46 1010.6
20260507184539 54 0 0.0 0.0 0.00 0.06 0.01 48 1010.6
20260507184017 54 0 0.0 0.0 0.00 0.06 0.01 49 1010.6
20260507183518 53 0 0.0 0.0 0.00 0.06 0.01 51 1010.6
20260507183037 54 0 0.0 0.0 0.00 0.06 0.01 50 1010.6
20260507182518 53 0 0.0 0.0 0.00 0.06 0.01 51 1010.7
20260507182018 53 0 0.0 0.0 0.00 0.06 0.01 51 1010.9
20260507181532 53 0 0.0 0.0 0.00 0.06 0.01 53 1011.0
20260507181018 54 0 0.0 0.0 0.00 0.06 0.01 52 1010.8
20260507180518 53 0 0.0 0.0 0.00 0.06 0.01 52 1010.9
20260507180032 53 0 0.0 0.0 0.00 0.06 0.01 50 1010.9
20260507175518 53 0 0.0 0.0 0.00 0.08 0.01 52 1010.8
20260507175017 53 0 0.0 0.0 0.00 0.08 0.01 52 1010.9
20260507174537 53 0 0.0 0.0 0.00 0.08 0.01 53 1011.0
20260507174017 53 0 0.0 0.0 0.00 0.08 0.01 52 1010.9
20260507173521 53 0 0.0 0.0 0.00 0.08 0.01 56 1011.0
20260507173036 53 0 0.0 0.0 0.00 0.08 0.01 59 1011.1
20260507172517 53 0 0.0 0.0 0.00 0.08 0.01 58 1011.1
20260507172017 53 0 0.0 0.0 0.00 0.08 0.01 62 1011.1
20260507171533 53 0 0.0 0.0 0.00 0.08 0.01 58 1011.2
20260507171018 53 0 0.0 0.0 0.00 0.08 0.01 57 1011.1
20260507170519 52 0 0.0 0.0 0.00 0.08 0.01 68 1011.2
20260507170034 52 0 0.0 0.0 0.00 0.08 0.01 58 1011.3
20260507165517 52 0 0.0 0.0 0.00 0.11 0.01 65 1011.3
20260507165017 51 0 0.0 0.0 0.00 0.11 0.01 60 1011.2
20260507164530 51 0 0.0 0.0 0.00 0.11 0.01 59 1011.3
20260507164022 51 0 0.0 0.0 0.00 0.11 0.01 63 1011.4
20260507163517 51 0 0.0 0.0 0.00 0.11 0.01 67 1011.5
20260507163033 50 0 0.0 0.0 0.00 0.11 0.01 62 1011.5
20260507162517 51 0 0.0 0.0 0.00 0.11 0.01 64 1011.6
20260507162017 50 0 0.0 0.0 0.00 0.11 0.01 64 1011.8
20260507161536 50 0 0.0 0.0 0.00 0.11 0.01 64 1011.8
20260507161017 50 0 0.0 0.0 0.00 0.11 0.01 64 1011.8
20260507160518 49 0 0.0 0.0 0.00 0.11 0.01 66 1011.8
20260507160036 48 0 0.0 0.0 0.00 0.11 0.01 65 1011.9
20260507155518 49 0 0.0 0.0 0.00 0.12 0.01 63 1011.9
20260507155018 49 0 0.0 0.0 0.00 0.12 0.01 62 1012.0
20260507154532 49 0 0.0 0.0 0.00 0.12 0.01 66 1011.9
20260507154017 49 0 0.0 0.0 0.00 0.12 0.01 64 1012.0
20260507153517 49 0 0.0 0.0 0.00 0.12 0.01 63 1012.1
20260507153030 50 0 0.0 0.0 0.00 0.12 0.01 60 1012.0
20260507152517 50 0 0.0 0.0 0.00 0.12 0.01 59 1011.9
20260507152018 51 0 0.0 0.0 0.00 0.12 0.01 63 1012.0
20260507151532 50 0 0.0 0.0 0.00 0.12 0.01 65 1012.0
20260507151017 50 0 0.0 0.0 0.00 0.12 0.01 65 1012.0
20260507150517 50 0 0.0 0.0 0.00 0.12 0.01 63 1012.0
20260507150035 50 0 0.0 0.0 0.00 0.12 0.01 59 1012.2
20260507145517 50 0 0.0 0.0 0.00 0.15 0.01 61 1012.2
20260507145018 50 0 0.0 0.0 0.00 0.15 0.01 59 1012.1
20260507144534 50 0 0.0 0.0 0.00 0.15 0.01 63 1012.0
20260507144017 50 0 0.0 0.0 0.00 0.15 0.01 62 1012.2
20260507143521 50 0 0.0 0.0 0.00 0.15 0.01 64 1012.2
20260507143032 49 0 0.0 0.0 0.00 0.15 0.01 63 1012.1
20260507142518 49 0 0.0 0.0 0.00 0.15 0.01 64 1012.3
20260507142014 49 0 0.0 0.0 0.00 0.15 0.01 63 1012.2
20260507141536 49 0 0.0 0.0 0.00 0.15 0.01 63 1012.3
20260507141017 49 0 0.0 0.0 0.00 0.15 0.01 68 1012.3
20260507140517 49 0 0.0 0.0 0.00 0.15 0.01 67 1012.2
20260507140043 49 0 0.0 0.0 0.00 0.15 0.01 65 1012.3
20260507135518 49 0 0.0 0.0 0.00 0.26 0.01 68 1012.3
20260507135014 49 0 0.0 0.0 0.00 0.26 0.01 62 1012.4
20260507134532 49 0 0.0 0.0 0.00 0.26 0.01 68 1012.4
20260507134016 48 0 0.0 0.0 0.00 0.26 0.01 64 1012.5
20260507133518 48 0 0.0 0.0 0.00 0.26 0.01 66 1012.6
20260507133030 47 0 0.0 0.0 0.00 0.26 0.01 64 1012.7
20260507132517 47 0 0.0 0.0 0.00 0.26 0.01 64 1012.4
20260507132018 47 0 0.0 0.0 0.00 0.26 0.01 63 1012.6
20260507131532 47 0 0.0 0.0 0.00 0.26 0.01 64 1012.6
20260507131018 47 0 0.0 0.0 0.00 0.26 0.01 64 1012.6
20260507130522 47 0 0.0 0.0 0.00 0.26 0.01 64 1012.6
20260507130049 47 0 0.0 0.0 0.00 0.26 0.01 63 1012.5
20260507125519 47 0 0.0 0.0 0.00 0.34 0.01 65 1012.4
20260507125015 47 0 0.0 0.0 0.00 0.34 0.01 68 1012.4
20260507124541 46 0 0.0 0.0 0.00 0.34 0.01 70 1012.3
20260507124017 46 0 0.0 0.0 0.00 0.34 0.01 70 1012.2
20260507123518 46 0 0.0 0.0 0.00 0.34 0.01 70 1012.4
20260507123038 46 0 0.0 0.0 0.00 0.34 0.01 68 1012.5
20260507122517 45 0 0.0 0.0 0.00 0.34 0.01 73 1012.5
20260507122017 45 0 0.0 0.0 0.00 0.34 0.01 75 1012.4
20260507121539 44 0 0.0 0.0 0.00 0.34 0.01 78 1012.4
20260507121021 43 0 0.0 0.0 0.00 0.34 0.01 77 1012.5
20260507120517 42 0 0.0 0.0 0.00 0.34 0.01 82 1012.4
20260507120029 41 0 0.0 0.0 0.00 0.34 0.01 85 1012.4
20260507115517 40 0 0.0 0.0 0.00 0.38 0.01 86 1012.4
20260507115017 40 0 0.0 0.0 0.00 0.38 0.01 90 1012.5
20260507114538 39 0 0.0 0.0 0.00 0.38 0.01 91 1012.4
20260507114018 38 0 0.0 0.0 0.00 0.38 0.01 93 1012.4
20260507113517 38 0 0.0 0.0 0.00 0.38 0.01 94 1012.4
20260507113038 37 0 0.0 0.0 0.00 0.38 0.01 95 1012.3
20260507112517 37 0 0.0 0.0 0.00 0.38 0.01 95 1012.4
20260507112018 36 0 0.0 0.0 0.00 0.38 0.01 96 1012.5
20260507111544 36 0 0.0 0.0 0.00 0.38 0.01 96 1012.5
20260507111017 35 0 0.0 0.0 0.00 0.38 0.01 95 1012.4
20260507110518 35 0 0.0 0.0 0.00 0.38 0.01 95 1012.5
20260507110031 34 0 0.0 0.0 0.00 0.38 0.01 95 1012.4
20260507105517 34 0 0.0 0.0 0.00 0.42 0.01 95 1012.4
20260507105017 34 0 0.0 0.0 0.00 0.42 0.01 95 1012.4
20260507104531 34 0 0.0 0.0 0.00 0.42 0.01 95 1012.4
20260507104020 33 0 0.0 0.0 0.00 0.42 0.01 95 1012.2
20260507103521 33 0 0.0 0.0 0.00 0.42 0.01 94 1012.1
20260507103035 33 0 0.0 0.0 0.00 0.42 0.01 94 1012.1
20260507102518 33 0 0.0 0.0 0.00 0.42 0.01 93 1012.0
20260507102017 33 0 0.0 0.0 0.00 0.42 0.01 94 1012.0
20260507101543 33 0 0.0 0.0 0.00 0.42 0.01 93 1011.9
20260507101018 33 0 0.0 0.0 0.00 0.42 0.01 93 1012.0
20260507100516 33 0 0.0 0.0 0.00 0.42 0.01 93 1011.8
20260507100035 33 0 0.0 0.0 0.00 0.42 0.01 93 1011.7
20260507095518 34 0 0.0 0.0 0.00 0.45 0.01 92 1011.7
20260507095019 34 0 0.0 0.0 0.00 0.45 0.01 93 1011.6
20260507094531 34 0 0.0 0.0 0.00 0.45 0.01 92 1011.7
20260507094017 34 0 0.0 0.0 0.00 0.45 0.01 92 1011.8
20260507093517 35 0 0.0 0.0 0.00 0.45 0.01 91 1011.9
20260507093039 35 0 0.0 0.0 0.00 0.45 0.01 91 1012.0
20260507092517 35 0 0.0 0.0 0.00 0.45 0.01 92 1012.0
20260507092017 36 0 0.0 0.0 0.00 0.45 0.01 91 1012.0
20260507091534 36 0 0.0 0.0 0.00 0.45 0.01 91 1012.1
20260507091017 36 0 0.0 0.0 0.00 0.45 0.01 91 1012.0
20260507090517 36 0 0.0 0.0 0.00 0.45 0.01 92 1012.0
20260507090034 36 0 0.0 0.0 0.00 0.45 0.01 92 1011.9
20260507085515 36 0 0.0 0.0 0.00 0.46 0.01 91 1012.0
20260507085018 37 0 0.0 0.0 0.00 0.46 0.01 91 1012.0
20260507084533 37 0 0.0 0.0 0.00 0.46 0.01 91 1011.9
20260507084022 37 0 0.0 0.0 0.00 0.46 0.01 90 1011.9
20260507083517 37 0 0.0 0.0 0.00 0.46 0.01 89 1011.9
20260507083037 37 0 0.0 0.0 0.00 0.46 0.01 89 1011.9
20260507082514 37 0 0.0 0.0 0.00 0.46 0.01 89 1011.8
20260507082017 38 0 0.0 0.0 0.00 0.46 0.01 89 1011.8
20260507081530 38 0 0.0 0.0 0.00 0.46 0.01 89 1011.7
20260507081017 39 0 0.0 0.0 0.00 0.46 0.01 90 1011.7
20260507080517 39 0 0.0 0.0 0.00 0.46 0.01 90 1011.9
20260507080035 39 0 0.0 0.0 0.00 0.46 0.01 90 1011.7
20260507075517 39 0 0.0 0.0 0.00 0.46 0.01 90 1011.6
20260507075017 40 0 0.0 0.0 0.00 0.46 0.01 90 1011.5
20260507074537 40 0 0.0 0.0 0.00 0.46 0.01 91 1011.7
20260507074016 40 0 0.0 0.0 0.00 0.46 0.01 90 1011.5
20260507073519 40 0 0.0 0.0 0.00 0.46 0.01 90 1011.6
20260507073033 40 0 0.0 0.0 0.00 0.46 0.01 90 1011.7
20260507072517 41 0 0.0 0.0 0.00 0.46 0.01 89 1011.5
20260507072017 41 0 0.0 0.0 0.00 0.46 0.01 89 1011.6
20260507071551 41 0 0.0 0.0 0.00 0.46 0.01 88 1011.6
20260507071022 41 0 0.0 0.0 0.00 0.46 0.01 88 1011.7
20260507070517 41 0 0.0 0.0 0.00 0.46 0.01 88 1011.8
20260507070034 41 0 0.0 0.0 0.00 0.46 0.01 88 1011.8
20260507065519 41 0 0.0 0.0 0.00 0.46 0.01 88 1011.7
20260507065017 41 0 0.0 0.0 0.00 0.46 0.01 88 1011.8
20260507064535 42 0 0.0 0.0 0.00 0.46 0.01 88 1011.9
20260507064020 42 0 0.0 0.0 0.00 0.46 0.01 89 1011.7
20260507063517 42 0 0.0 0.0 0.00 0.46 0.01 90 1011.6
20260507063038 42 0 0.0 0.0 0.00 0.46 0.01 90 1011.6
20260507062517 42 0 0.0 0.0 0.00 0.46 0.01 90 1011.7
20260507062017 42 0 0.0 0.0 0.00 0.46 0.01 91 1011.6
20260507061532 43 0 0.0 0.0 0.01 0.46 0.01 91 1011.5
20260507061015 43 0 0.0 0.0 0.01 0.46 0.01 91 1011.5
20260507060517 43 0 0.0 0.0 0.01 0.46 0.01 92 1011.4
20260507060033 43 0 0.0 0.0 0.01 0.46 0.01 92 1011.5
20260507055517 43 0 0.0 0.0 0.01 0.46 0.01 93 1011.6
20260507055017 43 0 0.0 0.0 0.01 0.46 0.01 93 1011.8
20260507054530 43 0 0.0 0.0 0.01 0.46 0.01 93 1011.7
20260507054017 43 0 0.0 0.0 0.01 0.46 0.01 93 1011.7
20260507053518 43 0 0.0 0.0 0.01 0.46 0.01 93 1011.6
20260507053032 43 0 0.0 0.0 0.01 0.46 0.01 93 1011.9
20260507052536 43 0 0.0 0.0 0.01 0.46 0.01 94 1011.9
20260507052017 44 0 0.0 0.0 0.00 0.45 0.00 94 1011.8
20260507051533 44 0 0.0 0.0 0.00 0.45 0.00 94 1011.8
20260507051017 44 0 0.0 0.0 0.00 0.45 0.00 94 1011.8
20260507050516 44 0 0.0 0.0 0.00 0.45 0.00 95 1011.9
20260507050032 44 0 0.0 0.0 0.00 0.45 0.00 95 1011.8
20260507045517 44 0 0.0 0.0 0.00 0.45 0.00 95 1011.6
20260507045018 44 0 0.0 0.0 0.00 0.45 0.00 95 1011.6
20260507044530 44 0 0.0 0.0 0.00 0.45 0.00 95 1011.6
20260507044014 44 0 0.0 0.0 0.00 0.45 0.00 96 1011.4
20260507043517 44 0 0.0 0.0 0.00 0.45 0.00 96 1011.3
20260507043035 44 0 0.0 0.0 0.00 0.45 0.00 96 1011.2
20260507042518 44 0 0.0 0.0 0.00 0.45 0.00 96 1011.2
20260507042017 44 0 0.0 0.0 0.00 0.45 0.00 96 1011.1
20260507041532 44 0 0.0 0.0 0.00 0.45 0.00 96 1010.9
20260507041017 44 0 0.0 0.0 0.00 0.45 0.00 96 1011.0
20260507040515 44 0 0.0 0.0 0.00 0.45 0.00 96 1010.8
20260507040035 44 0 0.0 0.0 0.00 0.45 0.00 97 1010.9
20260507035515 44 0 0.0 0.0 0.00 0.51 0.45 96 1010.9
20260507035014 44 0 0.0 0.0 0.00 0.51 0.45 96 1010.9
20260507034531 44 0 0.0 0.0 0.00 0.51 0.45 96 1010.9
20260507034016 44 0 0.0 0.0 0.00 0.51 0.45 96 1011.0
20260507033519 44 0 0.0 0.0 0.00 0.51 0.45 96 1011.2
20260507033035 44 0 0.0 0.0 0.00 0.51 0.45 96 1011.3